TimeCDT,TemperatureF,Dew PointF,Humidity,Sea Level PressureIn,VisibilityMPH,Wind Direction,Wind SpeedMPH,Gust SpeedMPH,PrecipitationIn,Events,Conditions,WindDirDegrees,DateUTC
12:53 AM,73.9,69.1,85,30.14,10.0,Calm,Calm,-,N/A,,Mostly Cloudy,0,2013-05-25 05:53:00
1:53 AM,73.9,70.0,87,30.11,10.0,Calm,Calm,-,N/A,,Partly Cloudy,0,2013-05-25 06:53:00
2:53 AM,73.9,70.0,87,30.11,9.0,Calm,Calm,-,N/A,,Partly Cloudy,0,2013-05-25 07:53:00
3:53 AM,73.9,71.1,91,30.10,9.0,ENE,4.6,-,N/A,,Mostly Cloudy,70,2013-05-25 08:53:00
4:53 AM,73.9,71.1,91,30.11,10.0,East,4.6,-,N/A,,Overcast,80,2013-05-25 09:53:00
5:53 AM,73.9,71.1,91,30.13,10.0,East,3.5,-,N/A,,Overcast,90,2013-05-25 10:53:00
6:53 AM,73.9,70.0,87,30.14,9.0,East,4.6,-,N/A,,Partly Cloudy,90,2013-05-25 11:53:00
7:53 AM,73.9,71.1,91,30.15,8.0,ESE,6.9,-,N/A,,Clear,120,2013-05-25 12:53:00
8:53 AM,77.0,71.1,82,30.16,10.0,SE,10.4,-,N/A,,Clear,130,2013-05-25 13:53:00
9:53 AM,80.1,72.0,76,30.17,10.0,ESE,5.8,-,N/A,,Clear,110,2013-05-25 14:53:00
10:53 AM,84.0,71.1,65,30.17,10.0,SSE,10.4,-,N/A,,Partly Cloudy,160,2013-05-25 15:53:00
11:53 AM,87.1,70.0,57,30.16,10.0,SSE,12.7,18.4,N/A,,Clear,160,2013-05-25 16:53:00
12:53 PM,87.1,70.0,57,30.15,10.0,SE,10.4,-,N/A,,Scattered Clouds,140,2013-05-25 17:53:00
1:53 PM,87.1,69.1,55,30.14,10.0,South,9.2,-,N/A,,Partly Cloudy,180,2013-05-25 18:53:00
2:53 PM,87.1,69.1,55,30.12,10.0,South,8.1,-,N/A,,Partly Cloudy,170,2013-05-25 19:53:00
3:53 PM,86.0,71.1,61,30.10,10.0,South,5.8,-,0.00,,Mostly Cloudy,180,2013-05-25 20:53:00
4:53 PM,75.9,66.0,71,30.13,2.5,SSE,19.6,27.6,0.09,Rain,Heavy Rain,160,2013-05-25 21:53:00
4:56 PM,73.4,66.2,78,30.14,0.8,SSW,31.1,42.6,0.15,Rain,Heavy Rain,210,2013-05-25 21:56:00
5:04 PM,73.4,60.8,65,30.11,0.5,NNW,9.2,42.6,0.40,Rain,Heavy Rain,340,2013-05-25 22:04:00
5:10 PM,71.6,60.8,69,30.12,2.5,NNW,11.5,-,0.41,Rain,Light Rain,330,2013-05-25 22:10:00
5:17 PM,73.4,62.6,69,30.11,10.0,North,6.9,-,0.41,Rain,Light Rain,10,2013-05-25 22:17:00
5:53 PM,75.9,69.1,79,30.09,10.0,East,3.5,-,0.41,,Clear,100,2013-05-25 22:53:00
6:53 PM,77.0,68.0,74,30.08,10.0,East,11.5,-,N/A,,Clear,90,2013-05-25 23:53:00
7:53 PM,75.9,70.0,82,30.09,10.0,East,4.6,-,N/A,,Clear,100,2013-05-26 00:53:00
8:53 PM,73.9,69.1,85,30.09,10.0,East,4.6,-,N/A,,Clear,90,2013-05-26 01:53:00
9:53 PM,73.0,68.0,84,30.10,10.0,East,6.9,-,N/A,,Clear,90,2013-05-26 02:53:00
10:53 PM,73.0,69.1,87,30.11,10.0,East,5.8,-,N/A,,Clear,100,2013-05-26 03:53:00
11:39 PM,73.4,69.8,88,30.12,9.0,East,4.6,-,N/A,,Mostly Cloudy,100,2013-05-26 04:39:00
11:53 PM,73.0,69.1,87,30.11,9.0,East,5.8,-,N/A,,Scattered Clouds,100,2013-05-26 04:53:00